2020-026B (45596 NORAD) Tracking and Keplerian Element Data

This shows tracking and keplerian element data for the satellite.

Feedback or suggestion? Click here.




ElementValue
Catalog45596
Name2020-026B
Epoch Orbit48
Epoch Day119.069355
Epoch Year2020
RAAN234.6732
Inclination51.634
Eccentricity0.0004063
Argument of Perigee73.1906
Mean Anonmoly289.6226
Mean Motion16.46607898
Decay Rate0.07957
L11 45596U 20026B 20119.06935500 .07957000 12602-4 17114-3 0 9990
L22 45596 51.6340 234.6732 0004063 73.1906 289.6226 16.46607898 488

Live tracking and technical data element details for 2020-026B (NORAD 45596). 2020-026B can be tracked NOW for your location showing map with azimuth and elevation plus other details from your city location.

Track the satellite on the map from your city or location and see movement details for azimuth, elevation, latitude, longitude, range, height, and movement on the map or in text.







IsCatalogInMostPopularTable: catalog: 45596, numindb: 5
Update: records affected: 1



GetName: 45596 2020-026B

Hit Count: updated at: Sat, 30 May 2020 15:35:31 GMT